Weather History for KTPH - November, 2012

Change the Weather History Date:

Monday, November 19, 2012

  Actual Average Record
Temperature  
Mean Temperature 43 °F 38 °F  
Max Temperature 54 °F 52 °F 68 °F (1989)
Min Temperature 32 °F 25 °F 7 °F (1964)
Degree Days  
Heating Degree Days 22 26  
Month to date heating degree days 391 429  
Since 1 July heating degree days 686 901  
Cooling Degree Days 0 0  
Month to date cooling degree days 0 0  
Year to date cooling degree days 1004 783  
Moisture  
Dew Point 33 °F    
Average Humidity 67    
Maximum Humidity 92    
Minimum Humidity 41    
Precipitation  
Precipitation 0.00 in 0.02 in 0.22 in (1967)
Month to date precipitation 0.18 0.28  
Year to date precipitation 5.94 4.77  
Sea Level Pressure  
Sea Level Pressure 30.21 in    
Wind  
Wind Speed 5 mph (ESE)    
Max Wind Speed 13 mph    
Max Gust Speed 17 mph    
Visibility 10 miles    
Events      
T = Trace of Precipitation, MM = Missing Value Source: NWS Daily Summary

Daily Weather History Graph

Daily Weather History Graph

Search for Another Location

Airport or City:

Trip Planner

Search our weather history database for the weather conditions in past years. The results will help you decide how hot, cold, wet, or windy it might be!

Date:

Astronomy

Nov. 19, 2012 Rise Set
Actual Time 6:34 AM PST 4:33 PM PST
Civil Twilight 6:05 AM PST 5:01 PM PST
Nautical Twilight 5:33 AM PST 5:33 PM PST
Astronomical Twilight 5:02 AM PST 6:05 PM PST
Moon 11:41 AM PST (11/19) 11:02 PM PST (11/19)
Length of Visible Light 10h 56m
Length of Day
9h 59m
Waxing Crescent, 42% of the Moon is Illuminated
Nov 19
Waxing Crescent
Nov 20
First Quarter
Nov 28
Full
Dec 6
Last Quarter
Dec 13
New

Hourly Weather History & Observations

Time (PST) Temp. Windchill Dew Point Humidity Pressure Visibility Wind Dir Wind Speed Gust Speed Precip Events Conditions
12:56 AM 37.9 °F 35.5 °F 33.1 °F 83% 30.13 in 10.0 mi NE 3.5 mph - N/A   Overcast
1:56 AM 37.9 °F - 34.0 °F 86% 30.12 in 10.0 mi Calm Calm - N/A   Mostly Cloudy
2:56 AM 37.0 °F 34.5 °F 34.0 °F 89% 30.13 in 10.0 mi North 3.5 mph - N/A   Scattered Clouds
3:56 AM 36.0 °F 32.1 °F 32.0 °F 86% 30.15 in 10.0 mi NE 4.6 mph - N/A   Partly Cloudy
4:56 AM 36.0 °F 31.1 °F 33.1 °F 89% 30.17 in 10.0 mi North 5.8 mph - N/A   Clear
5:56 AM 36.0 °F 33.3 °F 33.1 °F 89% 30.21 in 10.0 mi North 3.5 mph - N/A   Clear
6:56 AM 37.9 °F 35.5 °F 34.0 °F 86% 30.23 in 10.0 mi North 3.5 mph - N/A   Overcast
7:56 AM 41.0 °F 39.0 °F 35.1 °F 79% 30.24 in 10.0 mi North 3.5 mph - N/A   Overcast
8:56 AM 44.1 °F - 35.1 °F 71% 30.25 in 10.0 mi Calm Calm - N/A   Clear
9:56 AM 48.0 °F - 36.0 °F 63% 30.25 in 10.0 mi South 10.4 mph - N/A   Partly Cloudy
10:56 AM 50.0 °F - 35.1 °F 57% 30.24 in 10.0 mi South 9.2 mph - N/A   Clear
11:56 AM 51.1 °F - 35.1 °F 54% 30.22 in 10.0 mi Variable 6.9 mph - N/A   Clear
12:56 PM 52.0 °F - 33.1 °F 49% 30.19 in 10.0 mi South 12.7 mph - N/A   Clear
1:56 PM 54.0 °F - 32.0 °F 43% 30.18 in 10.0 mi South 8.1 mph - N/A   Clear
2:56 PM 54.0 °F - 30.0 °F 40% 30.18 in 10.0 mi South 8.1 mph - N/A   Clear
3:56 PM 52.0 °F - 32.0 °F 47% 30.19 in 10.0 mi South 9.2 mph - N/A   Clear
4:56 PM 46.9 °F - 33.1 °F 59% 30.22 in 10.0 mi South 5.8 mph - N/A   Clear
5:56 PM 44.1 °F 42.5 °F 33.1 °F 65% 30.25 in 10.0 mi SSE 3.5 mph - N/A   Clear
6:56 PM 42.1 °F - 32.0 °F 67% 30.26 in 10.0 mi Calm Calm - N/A   Clear
7:56 PM 39.0 °F 35.7 °F 30.9 °F 73% 30.27 in 10.0 mi East 4.6 mph - N/A   Clear
8:56 PM 39.0 °F - 30.0 °F 70% 30.27 in 10.0 mi Calm Calm - N/A   Clear
9:56 PM 37.0 °F - 28.9 °F 73% 30.25 in 10.0 mi Calm Calm - N/A   Clear
10:56 PM 35.1 °F - 28.9 °F 78% 30.26 in 10.0 mi Calm Calm - N/A   Clear
11:56 PM 33.1 °F 26.9 °F 28.0 °F 82% 30.27 in 10.0 mi North 6.9 mph - N/A   Clear